Location: Kelowna
(49.8880°N, 119.4960°W)
Time: 16:22:04
(UTC-07:00)

AO-27 - Pass Details

Date: 06 August 2024
Orbit: 783 x 796 km, 98.8° (Epoch: 14 September)

Event Time Altitude Azimuth Distance (km) Brightness Sun altitude
Rises 23:03:31 0° 218° (SW) 3,279 10.7 -18.7°
Reaches altitude 10° 23:07:08 10° 245° (WSW) 2,360 10.2 -19.0°
Maximum altitude 23:09:39 14° 274° (W) 2,127 10.3 -19.2°
Drops below altitude 10° 23:12:10 10° 303° (WNW) 2,372 11.0 -19.4°
Sets 23:15:50 0° 329° (NNW) 3,310 12.5 -19.7°
